Retour au catalogue

COSMOS 1829

ActifMilitairePO
NORAD 17584·PAYLOAD·🇷🇺 Russia

Lancé Mar 13, 1987 depuis Plesetsk Cosmodrome

Loading…

Prochains Passages (prochaines 24 heures)

TLE

FraisSource: Space-Track

Époque: Sep 14, 2026, 05:11 UTC

1 17584U 87026C   26257.21661388  .00000030  00000-0  10715-3 0  9995
2 17584  82.5755 175.7418 0001962  67.5843 292.5456 12.62722105820644

Suivez COSMOS 1829 en temps réel avec AllMySat

Download on the App Store